Powrót do katalogu

STARLINK-1262

AktywnyŁącznośćVLEO
NORAD 45366·PAYLOAD·🇺🇸 United States

Wystrzelony Mar 18, 2020 z Cape Canaveral Space Force Station

Loading…

Następne Przeloty (najbliższe 24 godziny)

TLE

ŚwieżeSource: CelesTrak SupGP

Epoka: Sep 14, 2026, 13:03 UTC

1 45366C 20019G   26257.54423611  .00019039  00000+0  43505-3 0  2572
2 45366  53.1509   1.8153 0001801  34.9342  18.0126 15.42256311    11

Śledź STARLINK-1262 w czasie rzeczywistym z AllMySat

Download on the App Store